sat.trackr.live / text

‹ back to catalog

STARLINK-31188

NORAD 58804 · 2024-012T

PAYLOAD ACTIVE UNKNOWN

§ Identity

Operator
Country
US
Launch date
2024-01-15
Launch site
AFETR
Launch vehicle
Mass (kg)
RCS (m²)

Purposes: comms

External: N2YO · Heavens-Above · Gunter

§ Orbital elements

Epoch: 2026-09-19T02:17:48.533568Z

Period
94.27 min
Inclination
43.0059°
Eccentricity
0.0001312
Mean motion
15.27561403 rev/d
Perigee alt
482.2 km
Apogee alt
484.0 km
Semi-major
6,861.2 km
B*
1.2063e-4
RAAN
153.0966°
Arg perigee
219.4196°
Mean anomaly
140.6560°
Rev number
15,081

§ Raw data

STARLINK-311881 58804U 24012T   26262.09570062  .00003057  00000+0  12063-3 0  99902 58804  43.0059 153.0966 0001312 219.4196 140.6560 15.27561403150818

JSON: /api/v1/satellites/58804 · /tle

For live sub-satellite position, see the globe view (requires WebGL).

§ Visibility from observer

Set your observer location to see the next 7 days of passes ≥ 10°. The values pass through the URL so the page stays shareable.

No JS? Fill the form by hand. The geolocation button needs JavaScript.